Regional Weather Roundup
Issued by NWS Newport/Morehead, NC

Current Version | Previous Version | Text Only | Print | Product List | Glossary On
Versions: 1 2 3 4 5 6 7 8 9 10 11 12 13 14 15 16 17 18 19 20 21 22 23 24 25 26 27 28 29 30 31 32 33 34 35 36 37 38 39 40 41 42 43 44 45 46 47 48 49 50
756
ASUS42 KMHX 221513
RWRMHX
WEATHER ROUNDUP FOR EASTERN NORTH CAROLINA
NATIONAL WEATHER SERVICE NEWPORT/MOREHEAD CITY NC
1100 AM EDT THU JUN 22 2017

NOTE: "FAIR" INDICATES FEW OR NO CLOUDS BELOW 12,000 FEET
WITH NO SIGNIFICANT WEATHER AND/OR OBSTRUCTIONS TO VISIBILITY

NCZ015>017-031-032-045>047-102-103-221600-
NORTH COAST

CITY           SKY/WX    TMP DP  RH WIND       PRES   REMARKS
EDENTON        CLOUDY    82  75  78 SW7       30.08S
ELIZABETH CITY CLOUDY    82  76  81 SW8       30.06F
KITTY HAWK     PTSUNNY   80  72  75 CALM      30.07R
MANTEO         CLOUDY    81  73  75 W6        30.08S

$$

NCZ045>047-081-094-103-104-221600-
CENTRAL COAST

CITY           SKY/WX    TMP DP  RH WIND       PRES   REMARKS
FRISCO         CLOUDY    83  74  74 W7        30.09S

$$

NCZ095-097-098-100-101-221600-
SOUTHERN COAST

CITY           SKY/WX    TMP DP  RH WIND       PRES   REMARKS
BEAUFORT       NOT AVBL
CEDAR ISLAND   NOT AVBL
JACKSONVILLE   PTSUNNY   85  76  74 W12       30.10R
PINEY ISLAND   SUNNY    N/A N/A N/A W12       30.09S
WILMINGTON     MOSUNNY   84  75  74 SW7       30.11S


$$

NCZ011>013-027>030-043-044-078>080-089-090>093-098-221600-
COASTAL PLAIN

CITY           SKY/WX    TMP DP  RH WIND       PRES   REMARKS
AHOSKIE          N/A     78  74  85 CALM      30.07S
CLINTON        MOSUNNY   82  76  83 W6        30.12R
ELIZABETHTOWN  NOT AVBL
GOLDSBORO      MOSUNNY   84  78  84 SW7       30.08S
GREENVILLE     CLOUDY    81  75  83 SW5       30.11R
HAVELOCK       SUNNY     86  73  65 W12G17    30.10S
KENANSVILLE    CLOUDY    82  75  78 W6        30.11S
KINSTON        MOSUNNY   84  73  70 SW7       30.11S
NEW BERN       MOSUNNY   84  74  71 W7        30.11R
RICHLANDS      MOSUNNY   84  76  76 VRB7      30.11S
ROCKY MOUNT    CLOUDY    83  75  77 SW10      30.09S
WASHINGTON     CLOUDY    81  74  79 W6        30.09S
WHITEVILLE     CLOUDY    82  75  81 SW3       30.12R

$$

AMZ130-135-150-152-154-156-158-170-250-252-270-ANZ085-086-088-633-658-670-221600-
MARINE OBSERVATIONS

STATION/POSITION TIME  TEMP    WIND        PRES    WAVE   SWELL
                       AIR SEA DIR/SP/G            HT/PER HT/PER
                 (UTC) (F)     (DEG/KT/KT) (MB)    (FT/S) (FT/S)
CHESAPEAKE LIGHT NOT AVBL
64 E VA BEACH    1450   72 70  240/  8/  8 1018.2    2/ 6   2/ 6
DUCK             1436   78 62  240/ 10/ 14 1017.7
2 E DUCK         NOT AVBL
OREGON INLET     1436   80 78  250/  7/  9 1018.3
13E OREGON INLT  1448      71                N/A     2/ 7   2/ 7
HATTERAS CG      1436   80 78  270/  7/  9 1018.7
DIAMOND BUOY     1450   78 79  250/  8/ 10 1019.1    2/ 7   2/ 7
CAPE LOOKOUT     1500   81     240/  7/  9 1019.1
BEAUFORT LAB     1436   83 77  210/  5/  7 1018.7
30 SE NEW RVR IN 1408   79 80  300/  6/  8 1019.7
30 SE NEW RVR IN 1443      81                N/A     3/ 7
27 SE WRIGHTSVLE 1408   78 80  260/  6/  8 1019.1
5 SE WRIGHTSVLE  1408   79 79  240/  4/  6 1019.5
225 S CAPE HAT   1450   81 82  210/ 12/ 14 1021.4    4/ 8   3/ 8
41 SE CHARLESTON 1450   81 81  190/  8/ 10 1020.0    3/ 7   3/ 7

$$




USA.gov is the U.S. government's official web portal to all federal, state and local government web resources and services.